$Date,$Time,DM0201B,DM0203B,DM0205B,DM0207B,DM0209B
10/05/98,00:00:01,164,179,-16,148,955
10/05/98,00:05:01,162,184,-16,171,955
10/05/98,00:10:01,225,175,-15,202,955
10/05/98,00:15:01,224,175,-15,222,955
10/05/98,00:20:01,285,157,-15,232,955
10/05/98,00:25:01,316,167,-15,228,955
10/05/98,00:30:01,334,157,-15,214,955
10/05/98,00:35:01,309,168,-15,199,955
10/05/98,00:40:01,314,156,-15,186,955
10/05/98,00:45:01,327,166,-15,180,955
10/05/98,00:50:01,326,166,-15,176,955
10/05/98,00:55:01,326,166,-15,168,955
10/05/98,01:00:01,312,165,-15,162,955
10/05/98,01:05:01,313,165,-15,162,955
10/05/98,01:10:01,356,165,-15,162,955
10/05/98,01:15:01,304,165,-15,156,953
10/05/98,01:20:01,287,165,-15,150,953
10/05/98,01:25:01,255,159,-15,142,953
10/05/98,01:30:01,264,169,-15,136,953
10/05/98,01:35:01,206,167,-15,134,953
10/05/98,01:40:01,145,167,-15,130,953
10/05/98,01:45:01,85,328,-15,126,953
10/05/98,01:50:01,80,315,-16,120,953
10/05/98,01:55:01,19,325,-15,112,953
10/05/98,02:00:01,141,157,-15,116,953
10/05/98,02:05:01,99,167,-15,128,953
10/05/98,02:10:01,158,175,-15,126,953
10/05/98,02:15:01,127,185,-15,122,953
10/05/98,02:20:01,166,175,-15,124,953
10/05/98,02:25:01,185,169,-15,124,953
10/05/98,02:30:01,165,157,-15,122,953
10/05/98,02:35:01,60,270,-15,126,953
10/05/98,02:40:01,23,354,-15,126,953
10/05/98,02:45:01,47,179,-15,126,953
10/05/98,02:50:01,97,166,-15,126,953
10/05/98,02:55:01,318,161,-15,129,953
10/05/98,03:00:01,121,208,-15,131,953
10/05/98,03:05:01,75,213,-15,133,953
10/05/98,03:10:01,91,212,-15,135,953
10/05/98,03:15:01,71,182,-15,141,953
10/05/98,03:20:01,233,181,-15,138,953
10/05/98,03:25:01,287,173,-15,134,953
10/05/98,03:30:01,306,163,-15,129,953
10/05/98,03:35:01,230,169,-15,126,953
10/05/98,03:40:01,271,162,-15,120,953
10/05/98,03:45:01,221,187,-16,116,953
10/05/98,03:50:01,399,170,-16,111,953
10/05/98,03:55:01,303,181,-16,107,953
10/05/98,04:00:01,271,173,-16,97,953
10/05/98,04:05:01,44,219,-16,95,953
10/05/98,04:10:01,278,191,-15,93,953
10/05/98,04:15:01,400,171,-16,89,953
10/05/98,04:20:01,317,182,-16,91,951
10/05/98,04:25:01,362,179,-16,96,951
10/05/98,04:30:01,294,176,-16,96,951
10/05/98,04:35:01,421,171,-16,89,953
10/05/98,04:40:01,427,171,-17,90,953
10/05/98,04:45:01,389,176,-17,76,953
10/05/98,04:50:01,549,176,-17,90,951
10/05/98,04:55:01,526,176,-17,85,951
10/05/98,05:00:01,539,176,-17,79,951
10/05/98,05:05:01,603,176,-17,75,951
10/05/98,05:10:01,612,175,-18,71,951
10/05/98,05:15:01,638,164,-18,69,951
10/05/98,05:20:01,670,164,-18,65,951
10/05/98,05:25:01,614,163,-18,63,951
10/05/98,05:30:01,688,174,-18,61,951
10/05/98,05:35:01,668,176,-17,61,951
10/05/98,05:40:01,660,166,-17,57,951
10/05/98,05:45:01,653,166,-17,53,951
10/05/98,05:50:01,617,176,-17,51,951
10/05/98,05:55:01,681,177,-17,51,951
10/05/98,06:00:01,558,167,-17,47,951
10/05/98,06:05:01,552,167,-17,43,951
10/05/98,06:10:01,605,178,-17,41,951
10/05/98,06:15:01,551,168,-17,37,951
10/05/98,06:20:01,596,168,-17,33,951
10/05/98,06:25:01,590,178,-17,31,951
10/05/98,06:30:01,602,174,-17,31,951
10/05/98,06:35:01,638,174,-17,29,951
10/05/98,06:40:01,624,174,-17,25,951
10/05/98,06:45:01,668,163,-17,25,951
10/05/98,06:50:01,586,173,-17,21,951
10/05/98,06:55:01,562,173,-17,21,951
10/05/98,07:00:01,662,175,-17,21,951
10/05/98,07:05:01,608,175,-17,19,951
10/05/98,07:10:01,622,172,-17,17,951
10/05/98,07:15:01,595,161,-17,15,951
10/05/98,07:20:01,683,166,-17,15,951
10/05/98,07:25:01,619,166,-17,13,951
10/05/98,07:30:01,634,166,-17,13,951
10/05/98,07:35:01,583,166,-17,11,951
10/05/98,07:40:01,570,166,-17,9,951
10/05/98,07:45:01,660,176,-17,9,951
10/05/98,07:50:01,576,164,-17,7,951
10/05/98,07:55:01,613,164,-17,7,951
10/05/98,08:00:01,617,164,-17,7,951
10/05/98,08:05:01,558,169,-17,5,951
10/05/98,08:10:01,542,169,-17,3,951
10/05/98,08:15:01,568,169,-17,3,951
10/05/98,08:20:01,590,169,-17,3,951
10/05/98,08:25:01,519,169,-17,1,951
10/05/98,08:30:01,512,171,-17,1,951
10/05/98,08:35:01,510,170,-17,1,951
10/05/98,08:40:01,540,170,-17,1,951
10/05/98,08:45:01,500,171,-17,1,951
10/05/98,08:50:01,558,171,-17,1,951
10/05/98,08:55:01,511,160,-17,1,951
10/05/98,09:00:01,521,160,-17,1,951
10/05/98,09:05:01,525,161,-17,1,951
10/05/98,09:10:01,574,161,-17,1,951
10/05/98,09:15:01,519,161,-17,1,951
10/05/98,09:20:01,533,161,-17,1,951
10/05/98,09:25:01,520,162,-17,1,951
10/05/98,09:30:01,498,162,-17,1,951
10/05/98,09:35:01,475,162,-17,1,951
10/05/98,09:40:01,562,162,-17,1,951
10/05/98,09:45:01,528,173,-17,1,951
10/05/98,09:50:01,484,161,-17,1,951
10/05/98,09:55:01,431,161,-17,1,951
10/05/98,10:00:01,481,169,-17,1,953
10/05/98,10:05:01,496,166,-17,1,953
10/05/98,10:10:01,389,156,-18,1,953
10/05/98,10:15:01,534,169,-18,1,953
10/05/98,10:20:01,445,172,-18,1,951
10/05/98,10:25:01,503,171,-18,1,951
10/05/98,10:30:01,557,161,-18,1,953
10/05/98,10:35:01,484,168,-18,1,953
10/05/98,10:40:01,506,173,-18,1,953
10/05/98,10:45:01,554,174,-18,1,953
10/05/98,10:50:01,554,163,-18,1,951
10/05/98,10:55:01,581,165,-19,1,951
10/05/98,11:00:01,525,165,-19,1,951
10/05/98,11:05:01,563,165,-19,1,953
10/05/98,11:10:01,535,165,-19,1,951
10/05/98,11:15:01,542,165,-19,1,953
10/05/98,11:20:01,486,165,-19,1,953
10/05/98,11:25:01,561,165,-19,1,953
10/05/98,11:30:01,467,165,-19,1,953
10/05/98,11:35:01,504,165,-19,1,953
10/05/98,11:40:01,559,165,-19,1,953
10/05/98,11:45:01,537,165,-19,1,953
10/05/98,11:50:01,591,165,-19,1,953
10/05/98,11:55:01,549,165,-19,1,953
10/05/98,12:00:01,478,165,-19,1,953
10/05/98,12:05:01,491,165,-19,1,953
10/05/98,12:10:01,496,165,-19,1,953
10/05/98,12:15:01,559,165,-19,1,953
10/05/98,12:20:01,526,165,-19,1,953
10/05/98,12:25:01,570,165,-19,1,953
10/05/98,12:30:01,491,168,-19,1,953
10/05/98,12:35:01,561,158,-19,1,953
10/05/98,12:40:01,521,168,-19,1,953
10/05/98,12:45:01,480,165,-19,1,953
10/05/98,12:50:01,477,165,-19,1,953
10/05/98,12:55:01,512,165,-19,1,953
10/05/98,13:00:01,506,165,-19,1,953
10/05/98,13:05:01,514,165,-19,1,953
10/05/98,13:10:01,461,165,-19,1,953
10/05/98,13:15:01,468,165,-19,1,953
10/05/98,13:20:01,538,165,-19,1,953
10/05/98,13:25:01,421,165,-19,1,953
10/05/98,13:30:01,452,165,-19,1,953
10/05/98,13:35:01,535,165,-19,1,953
10/05/98,13:40:01,495,165,-19,1,953
10/05/98,13:45:01,530,165,-19,1,953
10/05/98,13:50:01,533,165,-19,1,953
10/05/98,13:55:01,598,165,-19,1,953
10/05/98,14:00:01,523,176,-19,1,953
10/05/98,14:05:01,483,165,-19,1,953
10/05/98,14:10:01,561,165,-19,1,953
10/05/98,14:15:01,513,163,-20,1,953
10/05/98,14:20:01,578,163,-20,1,953
10/05/98,14:25:01,554,163,-20,1,953
10/05/98,14:30:01,544,173,-20,1,953
10/05/98,14:35:01,455,163,-20,1,955
10/05/98,14:40:01,456,163,-20,1,955
10/05/98,14:45:01,414,158,-20,1,955
10/05/98,14:50:01,458,166,-20,1,955
10/05/98,14:55:01,474,176,-20,1,955
10/05/98,15:00:01,415,165,-20,1,955
10/05/98,15:05:01,492,165,-19,1,955
10/05/98,15:10:01,427,165,-19,1,955
10/05/98,15:15:01,424,165,-19,1,955
10/05/98,15:20:01,450,167,-19,1,955
10/05/98,15:25:01,474,157,-19,1,955
10/05/98,15:30:01,486,170,-19,1,955
10/05/98,15:35:01,457,167,-19,1,955
10/05/98,15:40:01,457,167,-19,1,955
10/05/98,15:45:01,410,157,-19,1,955
10/05/98,15:50:01,512,157,-19,1,955
10/05/98,15:55:01,524,170,-19,1,955
10/05/98,16:00:01,486,168,-19,1,955
10/05/98,16:05:01,440,157,-19,1,955
10/05/98,16:10:01,425,156,-19,1,955
10/05/98,16:15:01,413,156,-19,1,955
10/05/98,16:20:01,452,156,-19,1,955
10/05/98,16:25:01,445,151,-19,1,955
10/05/98,16:30:01,511,162,-19,1,955
10/05/98,16:35:01,456,152,-19,1,955
10/05/98,16:40:01,493,163,-19,3,955
10/05/98,16:45:01,453,163,-19,3,955
10/05/98,16:50:01,384,150,-19,3,955
10/05/98,16:55:01,461,156,-19,5,955
10/05/98,17:00:01,409,155,-19,5,955
10/05/98,17:05:01,326,160,-19,5,955
10/05/98,17:10:01,382,163,-19,7,955
10/05/98,17:15:01,369,163,-19,7,955
10/05/98,17:20:01,462,163,-18,9,955
10/05/98,17:25:01,407,168,-18,11,955
10/05/98,17:30:01,484,171,-18,11,955
10/05/98,17:35:01,469,171,-18,15,955
10/05/98,17:40:01,487,171,-18,15,955
10/05/98,17:45:01,469,171,-18,17,955
10/05/98,17:50:01,461,171,-18,21,955
10/05/98,17:55:01,515,181,-18,21,955
10/05/98,18:00:01,468,181,-18,21,955
10/05/98,18:05:01,467,181,-18,23,955
10/05/98,18:10:01,483,180,-18,25,955
10/05/98,18:15:01,407,189,-18,27,955
10/05/98,18:20:01,427,178,-18,27,955
10/05/98,18:25:01,457,164,-18,27,955
10/05/98,18:30:01,455,164,-18,29,955
10/05/98,18:35:01,507,170,-18,33,955
10/05/98,18:40:01,521,170,-18,35,955
10/05/98,18:45:01,500,170,-18,39,955
10/05/98,18:50:01,480,170,-18,43,955
10/05/98,18:55:01,454,170,-18,45,955
10/05/98,19:00:01,520,170,-18,49,955
10/05/98,19:05:01,458,170,-18,51,955
10/05/98,19:10:01,492,170,-18,51,955
10/05/98,19:15:01,470,168,-18,53,955
10/05/98,19:20:01,443,168,-18,55,955
10/05/98,19:25:01,395,168,-18,55,955
10/05/98,19:30:01,448,158,-18,63,955
10/05/98,19:35:01,428,158,-18,65,955
10/05/98,19:40:01,417,158,-18,69,955
10/05/98,19:45:01,402,158,-18,71,955
10/05/98,19:50:01,425,158,-18,73,955
10/05/98,19:55:01,445,159,-18,77,955
10/05/98,20:00:01,408,159,-18,81,955
10/05/98,20:05:01,385,159,-18,87,955
10/05/98,20:10:01,379,159,-18,95,955
10/05/98,20:15:01,387,159,-18,101,955
10/05/98,20:20:01,444,159,-17,101,955
10/05/98,20:25:01,395,159,-17,105,955
10/05/98,20:30:01,420,159,-17,109,955
10/05/98,20:35:01,463,159,-17,123,955
10/05/98,20:40:01,437,159,-17,129,955
10/05/98,20:45:01,397,158,-17,122,955
10/05/98,20:50:01,448,170,-18,156,955
10/05/98,20:55:01,455,158,-18,135,955
10/05/98,21:00:01,435,169,-18,118,955
10/05/98,21:05:01,397,168,-18,114,955
10/05/98,21:10:01,382,167,-18,116,955
10/05/98,21:15:01,399,167,-18,114,955
10/05/98,21:20:01,390,167,-18,124,955
10/05/98,21:25:01,375,157,-18,130,955
10/05/98,21:30:01,360,156,-18,128,955
10/05/98,21:35:01,363,166,-18,128,955
10/05/98,21:40:01,374,155,-18,132,955
10/05/98,21:45:01,350,165,-18,143,955
10/05/98,21:50:01,351,155,-18,137,955
10/05/98,21:55:01,332,166,-18,138,955
10/05/98,22:00:01,352,166,-18,141,955
10/05/98,22:05:01,335,166,-18,155,955
10/05/98,22:10:01,354,156,-18,159,955
10/05/98,22:15:01,310,158,-18,155,955
10/05/98,22:20:01,360,159,-17,155,955
10/05/98,22:25:01,354,161,-17,154,955
10/05/98,22:30:01,393,161,-18,152,955
10/05/98,22:35:01,367,161,-18,150,955
10/05/98,22:40:01,409,168,-18,156,955
10/05/98,22:45:01,396,156,-18,162,955
10/05/98,22:50:01,400,167,-18,170,955
10/05/98,22:55:01,380,167,-18,163,955
10/05/98,23:00:01,258,177,-18,177,955
10/05/98,23:05:01,365,167,-18,186,955
10/05/98,23:10:01,410,167,-18,188,955
10/05/98,23:15:01,396,167,-18,191,955
10/05/98,23:20:01,442,159,-18,187,955
10/05/98,23:25:01,408,170,-18,171,955
10/05/98,23:30:01,413,170,-18,171,955
10/05/98,23:35:01,374,160,-18,165,955
10/05/98,23:40:01,352,170,-18,161,955
10/05/98,23:45:01,468,160,-18,167,955
10/05/98,23:50:01,424,160,-18,147,955
10/05/98,23:55:01,405,170,-18,108,955
10/06/98,00:00:01,340,162,-18,143,955
